Weather Roundup
Issued by NWS Springfield, MO

Home | Current Version | Previous Version | Text Only | Print | Product List | Glossary On
Versions: 1 2 3 4 5 6 7 8 9 10 11 12 13 14 15 16 17 18 19 20 21 22 23 24 25 26 27 28 29 30 31 32 33 34 35 36 37 38 39 40 41 42 43 44 45 46 47 48 49 50
625
NZUS99 KSGF 241957
HRRSGF

HOURLY WEATHER
NATIONAL WEATHER SERVICE SPRINGFIELD MO
200 PM CST FRI NOV 24 2017

......SGF CWA......

CITY           SKY/WX    TMP DP  RH WIND       PRES   REMARKS
SPRINGFIELD    SUNNY     72  36  26 S23G30    29.71F
JOPLIN         SUNNY     74  36  25 S26G36    29.70F
WEST PLAINS    SUNNY     69  32  25 S13G20    29.78F
ROLLA          SUNNY     72  35  25 SW17G30   29.67F
BRANSON        PTSUNNY   73  32  21 SW12G21   29.77F

......SURROUNDING SGF CWA......

CITY           SKY/WX    TMP DP  RH WIND       PRES   REMARKS
CHANUTE        SUNNY     70  38  31 S17G25    29.67F
PARSONS        SUNNY     73  37  27 SW15G26   29.70F
COFFEYVILLE    SUNNY     74  38  27 S12G24    29.69F
EMPORIA        SUNNY     78  37  22 SW20      29.61F
HARRISON AR    SUNNY     74  31  20 SW16G22   29.77F

......KANSAS AND MISSOURI......

CITY           SKY/WX    TMP DP  RH WIND       PRES   REMARKS
KANSAS CTY INT SUNNY     71  38  29 SW23G29   29.55S
SEDALIA        LGT RAIN  75  40  28 SW17G36   29.60F
ST JOSEPH      SUNNY     71  40  32 SW15      29.54R
ST LOUIS       MOSUNNY   73  38  27 S17       29.65F
WICHITA        MOSUNNY   75  40  28 SW13      29.67F
TOPEKA         CLOUDY    77  39  25 SW13G18   29.56F
OLATHE         SUNNY     70  38  31 SW17G25   29.58F

......TENNESSEE......

CITY           SKY/WX    TMP DP  RH WIND       PRES   REMARKS
MEMPHIS        NOT AVBL
NASHVILLE      PTSUNNY   63  23  21 SW7       29.91F

......ARKANSAS.......

CITY           SKY/WX    TMP DP  RH WIND       PRES   REMARKS
FAYETTEVILLE   SUNNY     70  33  25 S17       29.79F
FT SMITH       SUNNY     73  35  25 SW12      29.80F
LITTLE ROCK    PTSUNNY   69  31  24 SW17G23   29.87F

......OKLAHOMA.......

CITY           SKY/WX    TMP DP  RH WIND       PRES   REMARKS
TULSA          MOSUNNY   77  35  21 S15G25    29.71F
PONCA CITY     SUNNY     81  38  21 SW16G23   29.67F
MCALESTER      SUNNY     75  36  24 S15G25    29.80F
OKLAHOMA CITY  MOSUNNY   79  35  20 S20       29.73F

......IOWA............

CITY           SKY/WX    TMP DP  RH WIND       PRES   REMARKS
DES MOINES     NOT AVBL
QUAD CITIES    SUNNY     71  38  29 SW21G33   29.41F

......ILLINOIS........

CITY           SKY/WX    TMP DP  RH WIND       PRES   REMARKS
QUINCY         SUNNY     71  37  28 S23G32    29.53F
CHICAGO        MOSUNNY   62  38  40 S23G31    29.49F




USA.gov is the U.S. government's official web portal to all federal, state and local government web resources and services.